This is the latest recevied weather packets stored in our database for station/object KJ6APE. If no packets are shown the sender has not sent any weather packets the latest 10 day(s).
| Time | Temp. | Humidity | Pressure | Rain* | Wind** | Luminosity | Snow |
|---|---|---|---|---|---|---|---|
| 1777767577 | 17.78° C | 60% | 1011.4 hPa | 0 mm | - | 355 W/m² | - |
| 1777767274 | 18.33° C | 59% | 1011.4 hPa | 0 mm | - | 414 W/m² | - |
| 1777766972 | 18.89° C | 59% | 1011.3 hPa | 0 mm | - | 300 W/m² | - |
| 1777766668 | 18.33° C | 59% | 1011.4 hPa | 0 mm | - | 454 W/m² | - |
| 1777766366 | 18.89° C | 58% | 1011.3 hPa | 0 mm | - | 439 W/m² | - |
| 1777766063 | 18.89° C | 58% | 1011.2 hPa | 0 mm | - | 333 W/m² | - |
| 1777765760 | 18.89° C | 58% | 1011.5 hPa | 0 mm | - | 496 W/m² | - |
| 1777765456 | 18.89° C | 58% | 1011.2 hPa | 0 mm | - | 531 W/m² | - |
| 1777765154 | 18.89° C | 59% | 1011.4 hPa | 0 mm | - | 461 W/m² | - |
| 1777764849 | 18.33° C | 59% | 1011.4 hPa | 0 mm | - | 654 W/m² | - |
| 1777764547 | 18.33° C | 60% | 1011.6 hPa | 0 mm | - | 551 W/m² | - |
| 1777764243 | 18.89° C | 60% | 1011.6 hPa | 0 mm | - | 628 W/m² | - |
| 1777763939 | 18.89° C | 59% | 1011.7 hPa | 0 mm | - | 542 W/m² | - |
| 1777763637 | 18.89° C | 57% | 1011.9 hPa | 0 mm | - | 393 W/m² | - |
| 1777763335 | 18.89° C | 57% | 1011.9 hPa | 0 mm | - | 720 W/m² | - |
| 1777763033 | 19.44° C | 56% | 1011.9 hPa | 0 mm | - | 585 W/m² | - |
| 1777762730 | 19.44° C | 55% | 1012 hPa | 0 mm | - | 543 W/m² | - |
| 1777762426 | 19.44° C | 56% | 1011.9 hPa | 0 mm | - | 834 W/m² | - |
| 1777762123 | 19.44° C | 55% | 1012.2 hPa | 0 mm | - | 739 W/m² | - |
| 1777761819 | 19.44° C | 55% | 1012.2 hPa | 0 mm | - | 848 W/m² | - |
| 1777761517 | 19.44° C | 56% | 1012.4 hPa | 0 mm | - | 833 W/m² | - |
| 1777761215 | 18.89° C | 56% | 1012.2 hPa | 0 mm | - | 873 W/m² | - |
| 1777760912 | 19.44° C | 55% | 1012.5 hPa | 0 mm | - | 739 W/m² | - |
| 1777760610 | 18.89° C | 57% | 1012.4 hPa | 0 mm | - | 804 W/m² | - |
| 1777760305 | 18.89° C | 56% | 1012.5 hPa | 0 mm | - | 857 W/m² | - |
* Rain latest hour (hover to see other rain measurements)
** Current wind speed in m/s (hover to see current wind gust speed)